World > North America > United States > Texas

Jonesboro, Texas Regional Weather

Lat: 31.61N, Lon: 97.88W
Wx Zone: TXZ157Web Search
Jonesboro Weather Warning NWS WEATHER ALERT FOR THE JONESBORO, TX AREA - Issued: 727 PM CDT Thu Apr 15 2021 Jonesboro Weather Warning  

If you are on your PC, you can easily pass this page to your phone by scanning the QR Code near the bottom with your camera.

Feedback


°F Click to change Jonesboro hourly weather to Imperial units.Click to change Jonesboro hourly weather to Metric units. °C
Jonesboro Weather Map
UTC Time: 4/16/2021, 00:35
Your Time:

Jonesboro, TX Regional Weather

Expires:202104160100;;615404
ASUS44 KFWD 160015
RWRTX 
NORTH TEXAS HOURLY WEATHER ROUNDUP
NATIONAL WEATHER SERVICE FORT WORTH TX
700 PM CDT THU APR 15 2021

NOTE: "FAIR" INDICATES FEW OR NO CLOUDS BELOW 12,000 FEET WITH NO
SIGNIFICANT WEATHER AND/OR OBSTRUCTIONS TO VISIBILITY.


TXZ143>147-156>162-174-175-160100-
CENTRAL TEXAS
  
CITY           SKY/WX    TMP DP  RH WIND       PRES   REMARKS
WACO           LGT RAIN  59  57  93 E5        29.90F FOG              
6HR MIN TEMP:  59; 6HR MAX TEMP:  64; 6HR PCP:  0.36;                

WACO-TSTC      CLOUDY    59  57  94 CALM      29.91F                  
WACO-MCGREGOR  LGT RAIN  59  57  93 E12       29.90S                  
6HR MIN TEMP:  58; 6HR MAX TEMP:  62; 6HR PCP:  0.33;                

HILLSBORO      RAIN      57  57 100 N6        29.95R                  
6HR MIN TEMP:  57; 6HR MAX TEMP:  61; 6HR PCP:  0.43;                

CORSICANA      RAIN      60  58  92 E5        29.92F FOG              
6HR MIN TEMP:  60; 6HR MAX TEMP:  67; 6HR PCP:  0.36;                

MEXIA          RAIN      60  59  98 SE12      29.90F                  
6HR MIN TEMP:  60; 6HR MAX TEMP:  63; 6HR PCP:  0.10;                

HEARNE         CLOUDY    62  59  91 CALM      29.96R                  
6HR MIN TEMP:  60; 6HR MAX TEMP:  66; 6HR PCP:  0.49;                

CAMERON        RAIN      60  58  94 NE7       29.91S                  
6HR MIN TEMP:  60; 6HR MAX TEMP:  65; 6HR PCP:  0.46;                

TEMPLE         LGT RAIN  59  59 100 E13       29.90F                  
6HR MIN TEMP:  59; 6HR MAX TEMP:  62; 6HR PCP:  1.26;                

KILLEEN        CLOUDY    59  57  94 E7        29.90R                  
6HR MIN TEMP:  59; 6HR MAX TEMP:  62; 6HR PCP:  1.16;                

KILLEEN-SKYLRK CLOUDY   N/A N/A N/A E7        29.91F                  
                                      6HR PCP:  0.12;                

FORT HOOD      CLOUDY    59  57  94 E9        29.89R                  
                                      6HR PCP:  1.22;                

GATESVILLE     PTSUNNY   57  57 100 NE5       29.92S                  
HAMILTON       CLOUDY    57  57 100 N9        29.94R                  
6HR MIN TEMP:  57; 6HR MAX TEMP:  58; 6HR PCP:  0.93;                

LAMPASAS       CLOUDY    58  56  95 E3        29.90R                  
6HR MIN TEMP:  58; 6HR MAX TEMP:  60; 6HR PCP:  1.06;                

$$


SKY/WX - Weather  TMP - Temperature  DP - Dew Point  RH - Relative Humidity
WIND - Wind Direction/Speed PRES - Barometric Pressure VSB - Visibility
WCI - Wind Chill Index E13G22 Wind - East Wind 13 mph/Gusts of 22 mph